Regional Weather Roundup
Issued by NWS

Home | Current Version | Previous Version | Text Only | Print | Product List | Glossary On
Versions: 1 2 3 4 5 6 7 8 9 10 11 12 13 14 15 16 17 18 19 20 21 22 23 24 25 26 27 28 29 30 31 32 33 34 35 36 37 38 39 40 41 42 43 44 45 46 47 48 49 50
000
ASUS43 KTOP 221008
RWRKS

WEATHER ROUNDUP FOR KANSAS
NATIONAL WEATHER SERVICE GOODLAND KS
400 AM CST MON DEC 22 2014

NOTE:  "FAIR" INDICATES FEW OR NO CLOUDS BELOW 12,000 FEET WITH NO
SIGNIFICANT WEATHER AND/OR OBSTRUCTIONS TO VISIBILITY.

KSZ001>006-013>018-027>032-041>047-221100-
NORTHWEST KANSAS

CITY           SKY/WX    TMP DP  RH WIND       PRES   REMARKS
GOODLAND       CLOUDY    37  29  72 NW16      29.62R WCI  28
HAYS           CLOUDY    41  34  75 W8        29.53S
HILL CITY      CLOUDY    42  33  70 NW15      29.54R
RUSSELL        CLOUDY    44  43  96 S12       29.51F
$$

KSZ061>065-074>080-084>089-221100-
SOUTHWEST KANSAS

CITY           SKY/WX    TMP DP  RH WIND       PRES   REMARKS
DODGE CITY     CLOUDY    41  36  82 W17       29.54S
ELKHART          N/A    N/A N/A N/A MISG        N/A
GARDEN CITY    CLOUDY    41  36  82 NW15      29.58R
GREAT BEND     CLOUDY    43  39  87 S7        29.54F
LIBERAL        MOCLDY    41  34  75 NW14      29.60S
PRATT          FOG       43  41  93 S7        29.55F VSB 1/2
$$

KSZ066>073-081>083-090>101-221100-
SOUTHEAST KANSAS

CITY           SKY/WX    TMP DP  RH WIND       PRES   REMARKS
CHANUTE        CLOUDY    44  43  96 SE9       29.63F
COFFEYVILLE    CLOUDY    46  43  89 SE8       29.63F
HUTCHINSON     CLOUDY    45  43  93 S10       29.56F FOG
MEDICINE LODGE   N/A     45  44  97 S3        29.55S
NEWTON         CLOUDY    43  37  81 S10       29.58F
PARSONS        CLOUDY    45  43  93 SE7       29.63F
WICHITA INTL   DRIZZLE   45  43  93 S9        29.57F FOG
WICHITA JABRA  CLOUDY    44  43  96 S9        29.57S FOG
WICHITA MCCONL CLOUDY    45  43  93 SE9       29.57S FOG
WINFIELD       CLOUDY    45  44  97 SE12      29.58F FOG
$$

KSZ007>012-019>026-033>040-048>060-102>105-221100-
NORTHEAST KANSAS

CITY           SKY/WX    TMP DP  RH WIND       PRES   REMARKS
CONCORDIA      LGT RAIN  43  43 100 S17       29.53F FOG
EMPORIA        CLOUDY    42  42 100 SE12      29.58F FOG
LAWRENCE       CLOUDY    42  40  92 SE8       29.64F FOG
MANHATTAN      CLOUDY    44  42  93 S7        29.58F
MARYSVILLE     CLOUDY    43  41  93 S12       29.56F
OLATHE IND     LGT RAIN  41  40  96 SE13      29.64F FOG
OLATHE EXE     CLOUDY    41  41 100 SE10      29.64F FOG
SALINA         CLOUDY    45  43  93 S8        29.56F FOG
TOPEKA BILLARD CLOUDY    45  42  89 SE10      29.62F
TOPEKA FORBES  CLOUDY    44  41  89 SE10      29.61F FOG
$$


USA.gov is the U.S. government's official web portal to all federal, state and local government web resources and services.